Regional Weather Roundup
Issued by NWS

Home | Current Version | Previous Version | Graphics & Text | Print | Product List | Glossary On
Versions: 1 2 3 4 5 6 7 8 9 10 11 12 13 14 15 16 17 18 19 20 21 22 23 24 25 26 27 28 29 30 31 32 33 34 35 36 37 38 39 40 41 42 43 44 45 46 47 48 49 50
000
ASUS43 KIND 292109
RWRIN

WEATHER ROUNDUP FOR INDIANA
NATIONAL WEATHER SERVICE INDIANAPOLIS IN
500 PM EDT MON MAY 29 2017

NOTE: "FAIR" INDICATES FEW OR NO CLOUDS BELOW 12,000 FEET WITH NO
SIGNIFICANT WEATHER AND/OR OBSTRUCTIONS TO VISIBILITY.

* - STATION DOES NOT REPORT WEATHER SUCH AS PRECIPITATION OR FOG.

+ - STATION NOT QUALITY CONTROLLED BY THE NATIONAL WEATHER SERVICE.
    USE DATA WITH CAUTION...ESPECIALLY DEWPOINT AND RELATIVE
    HUMIDITY OBSERVATIONS.

INZ001>003-010>013-019-020-292200-
NORTHWEST INDIANA

CITY           SKY/WX    TMP DP  RH WIND       PRES   REMARKS
GARY /AIRPORT/ MOSUNNY   79  36  21 W23G40    29.83F
KNOX *+        PTSUNNY   77  36  22 W14G22    29.83S
LA PORTE +     MOSUNNY   77  46  33 W16G28    29.84S
MICHIGAN CITY+ MOSUNNY   73  46  38 W8G20     29.84S
MONTICELLO +   PTSUNNY   80  42  26 W16G23    29.84F
RENSSELAER +   PTSUNNY   79  32  18 W14G22    29.86S
VALPARAISO     SUNNY     80  46  30 W22G28    29.84S

$$

LMZ046-743>745-292200-
SOUTHERN LAKE MICHIGAN

STATION/POSITION TIME  TEMP    WIND        PRES    WAVE
                       AIR SEA DIR/SP/G            HT
                 (UTC) (F)     (DEG/KT/KT) (MB)    (FT)
BURNS HARBOR     2040   67     280/ 12/ 18 1010.5S
MICHIGAN CITY    2040   65     250/ 12/ 13   N/A
5NW MICH CITY    2100   61 57  260/  6/  8   N/A     2

$$

INZ004-005-014>016-021>024-292200-
NORTH CENTRAL INDIANA

CITY           SKY/WX    TMP DP  RH WIND       PRES   REMARKS
ELKHART        SUNNY     77  41  27 W22G31    29.83S
GOSHEN         CLOUDY    78  47  33 SW15G26   29.83F
LOGANSPORT +   MOSUNNY   79  43  27 W21G30    29.86S
PERU/GRISSOM   CLOUDY    77  52  41 W12       29.85S
ROCHESTER +    SUNNY     79  41  25 W12G23    29.85S
SOUTH BEND     MOSUNNY   76  50  40 NW15      29.83S
WARSAW +       MOSUNNY   77  48  36 W15       29.85S

$$

INZ006>009-017-018-025>027-292200-
NORTHEAST INDIANA

CITY           SKY/WX    TMP DP  RH WIND       PRES   REMARKS
ANGOLA *+      MOSUNNY   77  48  36 W14       29.84S
AUBURN +       CLOUDY    75  46  35 SW7       29.85F
FORT WAYNE     PTSUNNY   75  50  41 SW17      29.86S THUNDER
HUNTINGTON +   LGT RAIN  71  55  56 W3        29.86S
KENDALLVILLE + MOSUNNY   77  47  34 W16       29.85S

$$

INZ028-029-035-036-043>045-051>053-292200-
WEST CENTRAL INDIANA

CITY           SKY/WX    TMP DP  RH WIND       PRES   REMARKS
CRAWFORDSVL +  PTSUNNY   -7 -23  46 SW13      29.88F WCI -27
GREENCASTLE +  MOSUNNY   81  46  30 SW7       29.90F
LAFAYETTE      CLOUDY    77  47  34 W16       29.85S
TERRE HAUTE    SUNNY     82  47  29 SW13      29.89F

$$

INZ030>032-037>040-046>048-054>057-064-065-292200-
CENTRAL INDIANA

CITY           SKY/WX    TMP DP  RH WIND       PRES   REMARKS
CP ATTERBURY + MOSUNNY   81  52  36 SW13G21   29.91F
COLUMBUS       MOSUNNY   79  45  29 SW14      29.92S
FISHERS *+     MOSUNNY   81  54  39 W10G20    29.89F
FRANKFORT +    CLOUDY    81  51  35 W16G22    29.89S
GREENWOOD *+   MOSUNNY   79  51  37 W13G20    29.90F
INDIANAPOLIS   MOSUNNY   81  50  33 W17G25    29.89F
-EAGLE CREEK   SUNNY     81  46  29 SW10G18   29.88F
KOKOMO +       PTSUNNY   78  50  37 W15       29.88S
MT COMFORT *+    N/A    N/A N/A N/A MISG        N/A
SHELBYVILLE    CLOUDY    81  55  40 SW13      29.89F
ZIONSVILLE +   PTSUNNY   77  50  38 SW13      29.90S

$$

INZ033-034-041-042-049-050-058-059-292200-
EAST CENTRAL INDIANA

CITY           SKY/WX    TMP DP  RH WIND       PRES   REMARKS
MUNCIE         MOSUNNY   82  43  25 W14       29.88F
RICHMOND +     RAIN      73  54  49 W9        29.94S

$$

INZ060-061-067>069-081>083-085>088-292200-
SOUTHWEST INDIANA

CITY           SKY/WX    TMP DP  RH WIND       PRES   REMARKS
EVANSVILLE     MOSUNNY   83  54  36 SW15G22   29.91F
HUNTINGBURG *+ MOSUNNY   82  57  42 SW16G22   29.92F
WASHINGTON +   SUNNY     83  38  20 W15G22    29.90F

$$

INZ062-063-066-070>080-084-089>092-292200-
SOUTH CENTRAL AND SOUTHEAST INDIANA

CITY           SKY/WX    TMP DP  RH WIND       PRES   REMARKS
BEDFORD +      MOSUNNY   81  48  32 SW13G18   29.91F
BLOOMINGTON    MOSUNNY   83  50  31 SW13G21   29.90F
MADISON *+     MOSUNNY   81  43  26 SW10G20   29.96F
NORTH VERNON + MOSUNNY   79  54  41 SW15      29.93S
SEYMOUR +      MOSUNNY   82  55  39 SW17      29.92F

$$





USA.gov is the U.S. government's official web portal to all federal, state and local government web resources and services.